Tracking 28518 objects as of 2-Mar-2024
HD Live streaming from Space Station
objects crossing your sky now

PLATERO

Track PLATERO now!
10-day predictions


NORAD ID: 58262
Int'l Code: 2023-174G
Perigee: 515.8 km
Apogee: 532.3 km
Inclination: 97.5 °
Period: 95.0 minutes
Semi major axis: 6895 km
RCS: Unknown
Launch date: November 11, 2023
Source: United States (US)
Launch site: AIR FORCE WESTERN TEST RANGE (AFWTR)
Your satellite tracking list
Your tracking list is empty




NASA's NSSDC Master Catalog

Two Line Element Set (TLE):
1 58262U 23174G   24061.47971432  .00013423  00000-0  69372-3 0  9993
2 58262  97.4693 137.5568 0011946 258.5807 101.4084 15.16338745 17362
Source of the keplerian elements: AFSPC